| time (UTC) | temp F | wind direction | speed MPH | gust MPH | rain 1hr in | rain 24hr in | rain mn in | humidity % | barometer mb |
| 20260505124804 | 51 | 0 | 0.0 | 0.0 | 0.00 | 0.23 | 0.09 | 96 | 1013.4 |
| 20260505123603 | 51 | 0 | 0.0 | 0.0 | 0.00 | 0.23 | 0.09 | 96 | 1013.5 |
| 20260505113003 | 50 | 0 | 0.0 | 0.0 | 0.00 | 0.23 | 0.09 | 96 | 1013.5 |
| 20260505110603 | 50 | 0 | 0.0 | 0.0 | 0.00 | 0.23 | 0.09 | 96 | 1013.5 |
| 20260505101803 | 50 | 0 | 0.0 | 0.0 | 0.00 | 0.23 | 0.09 | 96 | 1013.7 |
| 20260505101204 | 50 | 0 | 0.0 | 0.0 | 0.01 | 0.23 | 0.09 | 96 | 1013.5 |
| 20260505100604 | 50 | 0 | 0.0 | 0.0 | 0.01 | 0.23 | 0.09 | 96 | 1013.5 |
| 20260505100004 | 50 | 0 | 0.0 | 0.0 | 0.01 | 0.23 | 0.09 | 96 | 1013.6 |
| 20260505093603 | 50 | 0 | 0.0 | 0.0 | 0.01 | 0.23 | 0.09 | 96 | 1013.8 |
| 20260505093003 | 50 | 0 | 0.0 | 0.0 | 0.01 | 0.23 | 0.09 | 96 | 1013.8 |
| 20260505092403 | 50 | 0 | 0.0 | 0.0 | 0.01 | 0.23 | 0.09 | 96 | 1013.9 |
| 20260505091803 | 50 | 0 | 0.0 | 0.0 | 0.01 | 0.23 | 0.09 | 96 | 1013.9 |
| 20260505091203 | 50 | 0 | 0.0 | 0.0 | 0.00 | 0.22 | 0.08 | 96 | 1014.0 |
| 20260505090603 | 50 | 0 | 0.0 | 0.0 | 0.01 | 0.22 | 0.08 | 96 | 1014.2 |
| 20260505085403 | 50 | 0 | 0.0 | 0.0 | 0.01 | 0.22 | 0.08 | 96 | 1014.1 |
| 20260505084203 | 50 | 0 | 0.0 | 0.0 | 0.04 | 0.22 | 0.08 | 96 | 1014.3 |
| 20260505083004 | 50 | 0 | 0.0 | 0.0 | 0.07 | 0.22 | 0.08 | 96 | 1014.3 |
| 20260505082404 | 50 | 0 | 0.0 | 0.0 | 0.07 | 0.22 | 0.08 | 96 | 1014.3 |
| 20260505081804 | 50 | 0 | 0.0 | 0.0 | 0.08 | 0.22 | 0.08 | 96 | 1014.3 |
| 20260505081204 | 50 | 0 | 0.0 | 0.0 | 0.08 | 0.22 | 0.08 | 96 | 1014.4 |
| 20260505080004 | 50 | 0 | 0.0 | 0.0 | 0.07 | 0.20 | 0.07 | 96 | 1014.4 |
| 20260505075403 | 50 | 0 | 0.0 | 0.0 | 0.07 | 0.20 | 0.07 | 96 | 1014.5 |
| 20260505074803 | 50 | 0 | 0.0 | 0.0 | 0.05 | 0.19 | 0.05 | 95 | 1014.3 |
| 20260505074203 | 50 | 0 | 0.0 | 0.0 | 0.04 | 0.18 | 0.04 | 95 | 1014.2 |
| 20260505072403 | 50 | 0 | 0.0 | 0.0 | 0.01 | 0.15 | 0.01 | 95 | 1014.5 |
| 20260505071803 | 50 | 0 | 0.0 | 0.0 | 0.00 | 0.14 | 0.00 | 95 | 1014.7 |
| 20260505070603 | 50 | 0 | 0.0 | 0.0 | 0.01 | 0.14 | 0.00 | 95 | 1014.7 |
| 20260505061803 | 50 | 0 | 0.0 | 0.0 | 0.04 | 0.14 | 0.14 | 95 | 1014.2 |
| 20260505061204 | 50 | 0 | 0.0 | 0.0 | 0.05 | 0.14 | 0.14 | 94 | 1014.3 |
| 20260505060604 | 50 | 0 | 0.0 | 0.0 | 0.04 | 0.12 | 0.12 | 94 | 1014.4 |
| 20260505024803 | 53 | 0 | 0.0 | 0.0 | 0.00 | 0.00 | 0.00 | 89 | 1013.7 |
| 20260505021803 | 54 | 0 | 0.0 | 0.0 | 0.00 | 0.00 | 0.00 | 88 | 1013.6 |
| 20260505021203 | 54 | 0 | 0.0 | 0.0 | 0.00 | 0.00 | 0.00 | 88 | 1013.6 |
| 20260505010004 | 55 | 0 | 0.0 | 0.0 | 0.00 | 0.00 | 0.00 | 90 | 1014.1 |
| 20260505000003 | 56 | 0 | 0.0 | 0.0 | 0.00 | 0.00 | 0.00 | 90 | 1014.3 |
| 20260504225404 | 57 | 0 | 0.0 | 0.0 | 0.00 | 0.00 | 0.00 | 86 | 1014.3 |
| 20260504215403 | 60 | 0 | 0.0 | 0.0 | 0.00 | 0.00 | 0.00 | 82 | 1014.4 |
| 20260504202403 | 61 | 0 | 0.0 | 3.0 | 0.00 | 0.00 | 0.00 | 81 | 1014.4 |
| 20260504201804 | 60 | 290 | 0.0 | 3.0 | 0.00 | 0.00 | 0.00 | 81 | 1014.4 |
| 20260504201204 | 60 | 285 | 0.0 | 3.0 | 0.00 | 0.00 | 0.00 | 80 | 1014.4 |
| 20260504200604 | 61 | 276 | 0.0 | 4.0 | 0.00 | 0.00 | 0.00 | 79 | 1014.5 |
| 20260504200004 | 62 | 0 | 0.0 | 0.0 | 0.00 | 0.00 | 0.00 | 80 | 1014.6 |
| 20260504195403 | 61 | 0 | 0.0 | 0.0 | 0.00 | 0.00 | 0.00 | 80 | 1014.5 |
| 20260504194203 | 61 | 0 | 0.0 | 0.0 | 0.00 | 0.00 | 0.00 | 80 | 1014.6 |
| 20260504193003 | 60 | 0 | 0.0 | 0.0 | 0.00 | 0.00 | 0.00 | 79 | 1014.6 |
| 20260504190603 | 60 | 0 | 0.0 | 0.0 | 0.00 | 0.00 | 0.00 | 78 | 1014.8 |
| 20260504190003 | 60 | 0 | 0.0 | 0.0 | 0.00 | 0.00 | 0.00 | 77 | 1014.8 |
| 20260504185403 | 60 | 0 | 0.0 | 0.0 | 0.00 | 0.00 | 0.00 | 79 | 1014.7 |
| 20260504184803 | 60 | 0 | 0.0 | 0.0 | 0.00 | 0.00 | 0.00 | 77 | 1014.7 |
| 20260504184203 | 60 | 0 | 0.0 | 0.0 | 0.00 | 0.00 | 0.00 | 76 | 1014.8 |
| 20260504183604 | 60 | 0 | 0.0 | 0.0 | 0.00 | 0.00 | 0.00 | 78 | 1014.8 |
| 20260504183004 | 60 | 0 | 0.0 | 0.0 | 0.00 | 0.00 | 0.00 | 76 | 1014.7 |
| 20260504182404 | 60 | 0 | 0.0 | 0.0 | 0.00 | 0.00 | 0.00 | 79 | 1014.7 |
| 20260504181804 | 59 | 0 | 0.0 | 0.0 | 0.00 | 0.00 | 0.00 | 81 | 1014.6 |
| 20260504180603 | 59 | 0 | 0.0 | 0.0 | 0.00 | 0.00 | 0.00 | 80 | 1014.6 |
| 20260504180004 | 59 | 0 | 0.0 | 0.0 | 0.00 | 0.00 | 0.00 | 82 | 1014.6 |
| 20260504175403 | 59 | 0 | 0.0 | 0.0 | 0.00 | 0.00 | 0.00 | 81 | 1014.6 |
| 20260504174804 | 59 | 0 | 0.0 | 0.0 | 0.00 | 0.00 | 0.00 | 81 | 1014.5 |
| 20260504173003 | 58 | 0 | 0.0 | 0.0 | 0.00 | 0.00 | 0.00 | 84 | 1014.4 |
| 20260504171803 | 58 | 0 | 0.0 | 0.0 | 0.00 | 0.00 | 0.00 | 85 | 1014.4 |